QPF
0.00 0.00 0.00 0.00 0.00 0.00 0.00 0.00 0.00 0.00 0.00 0.00 0.00 0.00 0.00 0.00 0.00 0.00 0.00 0.00 0.00 0.00 0.00 0.00 0.00 0.00 0.00 0.00 0.00 0.00 0.00 0.00 0.00 0.00 0.00 0.00 0.00 0.00 0.00 0.00 0.00 0.00 0.00 0.00 0.00
0.00 0.00 0.00 0.00 0.00 0.00 0.00 0.00 0.00 0.00 0.00 0.00 0.00 0.00 0.00 0.00 0.00 0.00 0.00 0.00 0.00 0.00 0.00 0.00 0.00 0.00 0.00 0.00 0.00 0.00 0.00 0.00 0.00 0.00 0.00 0.00 0.00 0.00 0.00 0.00 0.00 0.00 0.00 0.00 0.00
0.00 0.00 0.00 0.00 0.00 0.00 0.00 0.00 0.00 0.00 0.00 0.00 0.00 0.00 0.00 0.00 0.00 0.00 0.00 0.00 0.00 0.00 0.00 0.00 0.00 0.00 0.00 0.00 0.00 0.00 0.00 0.00 0.00 0.00 0.00 0.00 0.00 0.00 0.00 0.00 0.00 0.00 0.00 0.00 0.00
0.00 0.00 0.00 0.00 0.00 0.00 0.00 0.00 0.00 0.00 0.00 0.00 0.00 0.00 0.00 0.00 0.00 0.00 0.00 0.00 0.00 0.00 0.00 0.00 0.00 0.00 0.00 0.00 0.00 0.00 0.00 0.00 0.00 0.00 0.00 0.00 0.00 0.00 0.00 0.00 0.00 0.00 0.00 0.00 0.00
0.00 0.00 0.00 0.00 0.00 0.00 0.00 0.00 0.00 0.00 0.00 0.00 0.00 0.00 0.00 0.00 0.00 0.00 0.00 0.00 0.00 0.00 0.00 0.00 0.00 0.00 0.00 0.00 0.00 0.00 0.00 0.00 0.00 0.00 0.00 0.00 0.00 0.00 0.00 0.00 0.00 0.00 0.00 0.00 0.00
0.00 0.00 0.00 0.00 0.00 0.00 0.00 0.00 0.00 0.00 0.00 0.00 0.00 0.00 0.00 0.00 0.00 0.00 0.00 0.02 0.02 0.00 0.00 0.00 0.00 0.00 0.00 0.00 0.00 0.00 0.00 0.00 0.00 0.00 0.00 0.00 0.00 0.00 0.00 0.00 0.00 0.00 0.00 0.00 0.00
0.00 0.00 0.00 0.00 0.00 0.00 0.00 0.00 0.00 0.00 0.00 0.00 0.00 0.00 0.00 0.00 0.00 0.00 0.00 0.02 0.00 0.00 0.00 0.00 0.00 0.00 0.00 0.00 0.00 0.00 0.00 0.00 0.00 0.00 0.00 0.00 0.00 0.00 0.00 0.00 0.00 0.00 0.00 0.00 0.00
0.00 0.00 0.00 0.00 0.00 0.00 0.00 0.00 0.00 0.00 0.00 0.00 0.00 0.00 0.00 0.00 0.00 0.00 0.00 0.00 0.00 0.00 0.00 0.00 0.00 0.00 0.00 0.00 0.00 0.00 0.00 0.00 0.00 0.00 0.00 0.00 0.00 0.00 0.00 0.00 0.00 0.00 0.00 0.00 0.00
0.00 0.00 0.00 0.00 0.00 0.00 0.00 0.00 0.00 0.00 0.00 0.00 0.00 0.00 0.00 0.00 0.00 0.00 0.00 0.01 0.01 0.00 0.00 0.00 0.00 0.00 0.00 0.00 0.00 0.00 0.00 0.00 0.00 0.00 0.00 0.00 0.00 0.00 0.00 0.00 0.00 0.00 0.00 0.00 0.00
0.00 0.00 0.00 0.00 0.00 0.00 0.00 0.00 0.00 0.00 0.00 0.00 0.00 0.00 0.00 0.00 0.00 0.00 0.00 0.00 0.01 0.00 0.00 0.00 0.00 0.00 0.00 0.00 0.00 0.00 0.00 0.00 0.00 0.00 0.00 0.00 0.00 0.00 0.00 0.00 0.00 0.00 0.00 0.00 0.00
0.00 0.00 0.00 0.00 0.00 0.00 0.00 0.00 0.00 0.00 0.00 0.00 0.00 0.00 0.00 0.00 0.00 0.00 0.00 0.00 0.00 0.00 0.00 0.00 0.00 0.00 0.00 0.00 0.00 0.00 0.00 0.00 0.00 0.00 0.00 0.00 0.00 0.00 0.00 0.00 0.00 0.00 0.00 0.00 0.00
0.00 0.00 0.00 0.00 0.00 0.00 0.00 0.00 0.00 0.00 0.00 0.00 0.00 0.00 0.00 0.00 0.00 0.00 0.00 0.00 0.00 0.00 0.00 0.00 0.00 0.00 0.00 0.00 0.00 0.00 0.00 0.00 0.00 0.00 0.00 0.00 0.00 0.00 0.00 0.00 0.00 0.00 0.00 0.00 0.00
0.00 0.00 0.00 0.00 0.00 0.00 0.00 0.00 0.00 0.00 0.00 0.00 0.00 0.00 0.00 0.00 0.00 0.00 0.00 0.00 0.00 0.00 0.00 0.00 0.00 0.00 0.00 0.00 0.00 0.00 0.00 0.00 0.00 0.00 0.00 0.00 0.00 0.00 0.00 0.00 0.00 0.00 0.00 0.00 0.00
0.00 0.00 0.00 0.00 0.00 0.00 0.00 0.00 0.00 0.00 0.00 0.00 0.00 0.00 0.00 0.00 0.00 0.00 0.00 0.00 0.00 0.00 0.00 0.00 0.00 0.00 0.00 0.00 0.00 0.00 0.00 0.00 0.00 0.00 0.00 0.00 0.00 0.00 0.00 0.00 0.00 0.00 0.00 0.00 0.00
0.00 0.00 0.00 0.00 0.00 0.00 0.00 0.00 0.00 0.00 0.00 0.00 0.00 0.00 0.00 0.00 0.00 0.00 0.00 0.00 0.00 0.00 0.00 0.00 0.00 0.00 0.00 0.00 0.00 0.00 0.00 0.00 0.00 0.00 0.00 0.00 0.00 0.00 0.00 0.00 0.00 0.00 0.00 0.00 0.00
0.00 0.00 0.00 0.00 0.00 0.00 0.00 0.00 0.00 0.00 0.00 0.00 0.00 0.00 0.00 0.00 0.00 0.00 0.00 0.00 0.00 0.00 0.00 0.00 0.00 0.00 0.00 0.00 0.00 0.00 0.00 0.00 0.00 0.00 0.00 0.00 0.00 0.00 0.00 0.00 0.00 0.00 0.00 0.00 0.00
0.00 0.00 0.00 0.00 0.00 0.00 0.00 0.00 0.00 0.00 0.00 0.00 0.00 0.00 0.00 0.00 0.00 0.00 0.00 0.00 0.00 0.00 0.00 0.00 0.00 0.00 0.00 0.00 0.00 0.00 0.00 0.00 0.00 0.00 0.00 0.00 0.00 0.00 0.00 0.00 0.00 0.00 0.00 0.00 0.00
0.00 0.00 0.00 0.00 0.00 0.00 0.00 0.00 0.00 0.00 0.00 0.00 0.00 0.00 0.00 0.00 0.00 0.00 0.00 0.00 0.00 0.00 0.00 0.00 0.00 0.00 0.00 0.00 0.00 0.00 0.00 0.00 0.00 0.00 0.00 0.00 0.00 0.00 0.00 0.00 0.00 0.00 0.00 0.00 0.00
0.00 0.00 0.00 0.00 0.00 0.00 0.00 0.00 0.00 0.00 0.00 0.00 0.00 0.00 0.00 0.00 0.00 0.00 0.00 0.00 0.00 0.00 0.00 0.00 0.00 0.00 0.00 0.00 0.00 0.00 0.00 0.00 0.00 0.00 0.00 0.00 0.00 0.00 0.00 0.00 0.00 0.00 0.00 0.00 0.00
0.00 0.00 0.00 0.00 0.00 0.00 0.00 0.00 0.00 0.00 0.00 0.00 0.00 0.00 0.00 0.00 0.00 0.00 0.00 0.00 0.00 0.00 0.00 0.00 0.00 0.00 0.00 0.00 0.00 0.00 0.00 0.00 0.00 0.00 0.00 0.00 0.00 0.00 0.00 0.00 0.00 0.00 0.00 0.00 0.00
0.00 0.00 0.00 0.00 0.00 0.00 0.00 0.00 0.00 0.00 0.00 0.00 0.00 0.00 0.00 0.00 0.00 0.00 0.00 0.00 0.00 0.00 0.00 0.00 0.00 0.00 0.00 0.00 0.00 0.00 0.00 0.00 0.00 0.00 0.00 0.00 0.00 0.00 0.00 0.00 0.00 0.00 0.00 0.00 0.00
0.00 0.00 0.00 0.00 0.00 0.00 0.00 0.00 0.00 0.00 0.00 0.00 0.00 0.00 0.00 0.00 0.00 0.00 0.00 0.00 0.00 0.00 0.00 0.00 0.00 0.00 0.00 0.00 0.00 0.00 0.00 0.00 0.00 0.00 0.00 0.00 0.00 0.00 0.00 0.00 0.00 0.00 0.00 0.00 0.00
0.00 0.00 0.00 0.00 0.00 0.00 0.00 0.00 0.00 0.00 0.00 0.00 0.00 0.00 0.00 0.00 0.00 0.00 0.00 0.00 0.00 0.00 0.00 0.00 0.00 0.00 0.00 0.00 0.00 0.00 0.00 0.00 0.00 0.00 0.00 0.00 0.00 0.00 0.00 0.00 0.00 0.00 0.00 0.00 0.00
0.00 0.00 0.00 0.00 0.00 0.00 0.00 0.00 0.00 0.00 0.00 0.00 0.00 0.00 0.00 0.00 0.00 0.00 0.00 0.00 0.00 0.00 0.00 0.00 0.00 0.00 0.00 0.00 0.00 0.00 0.00 0.00 0.00 0.00 0.00 0.00 0.00 0.00 0.00 0.00 0.00 0.00 0.00 0.00 0.00
0.00 0.00 0.00 0.00 0.00 0.00 0.00 0.00 0.00 0.00 0.00 0.00 0.00 0.00 0.00 0.00 0.00 0.00 0.00 0.00 0.00 0.00 0.00 0.00 0.00 0.00 0.00 0.00 0.00 0.00 0.00 0.00 0.00 0.00 0.00 0.00 0.00 0.00 0.00 0.00 0.00 0.00 0.00 0.00 0.00
0.00 0.00 0.00 0.00 0.00 0.00 0.00 0.00 0.00 0.00 0.00 0.00 0.00 0.00 0.00 0.00 0.00 0.00 0.00 0.00 0.00 0.00 0.00 0.00 0.00 0.00 0.00 0.00 0.00 0.00 0.00 0.00 0.00 0.00 0.00 0.00 0.00 0.00 0.00 0.00 0.00 0.00 0.00 0.00 0.00
0.00 0.00 0.00 0.00 0.00 0.00 0.00 0.00 0.00 0.00 0.00 0.00 0.00 0.00 0.00 0.00 0.00 0.00 0.00 0.00 0.00 0.00 0.00 0.00 0.00 0.00 0.00 0.00 0.00 0.00 0.00 0.00 0.00 0.00 0.00 0.00 0.00 0.00 0.00 0.00 0.00 0.00 0.00 0.00 0.00
MSLP
1016.56 1016.19 1015.94 1015.60 1015.36 1015.23 1015.08 1014.94 1014.80 1014.47 1014.14 1013.86 1013.52 1013.38 1013.26 1012.95 1012.06 1011.92 1010.52 1008.72 1008.66 1008.75 1009.02 1009.37 1009.61 1009.62 1009.68 1009.84 1010.05 1009.96 1009.47 1009.01 1008.70 1008.37 1008.16 1008.12 1008.13 1008.69 1009.06 1009.31 1009.89 1010.48 1010.78 1011.22 1012.90
1016.61 1016.26 1016.00 1015.56 1015.30 1015.19 1015.04 1014.90 1014.75 1014.35 1013.93 1013.64 1013.54 1013.32 1013.20 1012.83 1011.97 1010.42 1008.24 1008.44 1008.72 1008.98 1009.11 1009.16 1009.46 1009.60 1009.74 1009.92 1009.99 1009.82 1009.32 1008.73 1008.58 1008.28 1007.95 1007.93 1008.06 1008.49 1009.05 1009.47 1010.00 1010.76 1011.54 1012.26 1013.08
1016.56 1016.26 1015.90 1015.53 1015.26 1015.08 1014.94 1014.84 1014.64 1014.18 1013.68 1013.68 1013.50 1013.22 1012.97 1012.58 1011.28 1008.46 1007.83 1008.46 1008.69 1008.90 1008.96 1009.14 1009.48 1009.70 1009.76 1009.96 1009.90 1009.59 1009.12 1008.61 1008.21 1007.90 1007.71 1007.62 1007.89 1008.30 1008.60 1009.07 1009.42 1010.16 1011.56 1012.42 1013.10
1016.48 1016.21 1015.79 1015.48 1015.21 1015.06 1014.96 1014.80 1014.46 1013.95 1013.66 1013.64 1013.35 1013.04 1012.67 1012.33 1010.13 1007.78 1007.92 1008.34 1008.55 1008.76 1009.03 1009.27 1009.66 1009.76 1009.84 1009.90 1009.83 1009.48 1008.67 1008.15 1007.70 1007.54 1007.51 1007.37 1007.71 1008.05 1008.42 1008.50 1008.90 1009.98 1011.03 1011.96 1012.65
1016.36 1016.12 1015.76 1015.39 1015.15 1015.03 1014.87 1014.62 1014.20 1013.79 1013.72 1013.41 1013.20 1012.78 1012.26 1011.26 1008.97 1007.98 1008.30 1008.61 1008.85 1008.93 1009.02 1009.20 1009.49 1009.58 1009.68 1009.92 1009.82 1009.31 1008.69 1008.07 1007.66 1007.00 1007.15 1007.18 1007.44 1007.78 1008.48 1008.95 1009.35 1010.34 1011.33 1011.93 1012.33
1016.24 1015.99 1015.70 1015.31 1015.03 1014.92 1014.74 1014.45 1013.93 1013.68 1013.65 1013.24 1013.02 1012.67 1011.87 1010.07 1008.09 1008.31 1008.64 1008.83 1009.02 1009.00 1009.24 1009.25 1009.29 1009.54 1009.66 1009.77 1009.66 1009.16 1008.70 1008.11 1007.66 1007.18 1006.99 1007.06 1007.50 1007.92 1008.89 1009.33 1009.77 1010.53 1011.10 1011.67 1012.04
1016.08 1015.82 1015.53 1015.15 1014.91 1014.78 1014.59 1014.24 1013.70 1013.56 1013.46 1013.19 1012.83 1012.40 1011.27 1008.96 1008.15 1008.42 1008.73 1009.00 1008.90 1008.98 1009.11 1009.45 1009.46 1009.44 1009.59 1009.62 1009.43 1009.04 1008.50 1007.90 1007.60 1007.41 1007.23 1007.31 1007.61 1008.05 1008.70 1009.24 1009.90 1010.47 1010.98 1011.55 1011.92
1015.91 1015.65 1015.38 1015.02 1014.82 1014.64 1014.41 1014.00 1013.42 1013.34 1013.23 1012.99 1012.60 1012.19 1009.89 1008.30 1008.36 1008.64 1008.88 1008.93 1008.96 1008.98 1009.09 1009.27 1009.28 1009.22 1009.28 1009.37 1009.11 1008.86 1008.67 1007.96 1007.55 1007.48 1007.48 1007.46 1007.71 1008.32 1008.90 1009.20 1009.66 1010.32 1010.74 1011.22 1011.46
1015.65 1015.39 1015.18 1014.96 1014.72 1014.53 1014.22 1013.70 1013.06 1013.07 1013.06 1012.77 1012.53 1011.45 1009.26 1008.36 1008.31 1008.48 1008.69 1008.78 1008.82 1008.96 1009.08 1009.11 1009.05 1009.16 1009.21 1009.05 1009.00 1008.89 1008.45 1008.22 1007.56 1007.35 1007.50 1007.57 1007.56 1008.21 1008.78 1009.03 1009.24 1009.90 1010.41 1010.62 1011.00
1015.41 1015.19 1014.96 1014.79 1014.62 1014.37 1013.94 1013.33 1012.78 1012.75 1012.90 1012.59 1011.87 1011.15 1009.07 1008.04 1007.82 1008.22 1008.64 1008.41 1008.54 1008.82 1008.96 1009.05 1009.25 1009.22 1009.22 1009.04 1008.71 1008.58 1008.21 1007.97 1007.40 1007.02 1007.33 1007.38 1007.23 1007.83 1008.38 1008.65 1008.74 1009.30 1009.88 1010.13 1010.20
1015.13 1014.95 1014.79 1014.64 1014.55 1014.34 1013.55 1013.08 1013.06 1012.43 1011.83 1010.44 1009.84 1009.10 1008.17 1007.74 1007.53 1007.96 1008.03 1008.13 1008.45 1008.78 1008.82 1009.19 1008.94 1008.42 1008.24 1008.36 1008.37 1008.30 1008.06 1007.69 1007.16 1007.02 1007.02 1006.87 1006.80 1007.03 1007.58 1008.05 1008.46 1008.82 1009.10 1009.29 1009.26
1014.84 1014.67 1014.54 1014.44 1014.46 1014.29 1014.09 1012.58 1011.72 1011.64 1010.49 1009.16 1009.05 1008.39 1007.91 1007.51 1007.37 1007.81 1007.97 1008.06 1008.36 1008.53 1008.94 1008.91 1008.21 1007.90 1007.95 1008.00 1008.02 1007.86 1007.56 1007.16 1007.03 1006.95 1007.02 1006.54 1006.16 1006.26 1006.76 1007.15 1007.73 1007.97 1008.19 1008.39 1008.72
1014.63 1014.45 1014.33 1014.29 1014.21 1014.06 1013.07 1011.79 1011.30 1011.02 1010.20 1008.70 1008.08 1007.44 1006.92 1007.00 1006.73 1007.08 1007.47 1007.62 1008.04 1008.32 1008.42 1008.33 1007.45 1007.46 1007.49 1007.43 1007.38 1007.16 1007.16 1007.05 1006.89 1007.00 1007.05 1006.87 1005.91 1006.00 1006.38 1006.58 1006.91 1007.13 1007.36 1007.56 1007.72
1014.36 1014.28 1014.21 1014.11 1014.42 1013.08 1012.12 1011.20 1011.07 1010.81 1009.66 1008.11 1007.33 1006.18 1006.44 1006.37 1006.25 1006.26 1006.69 1006.98 1007.60 1007.84 1008.07 1007.72 1007.18 1006.95 1006.79 1006.62 1006.65 1006.46 1006.74 1006.81 1006.77 1006.80 1006.83 1007.18 1006.19 1005.99 1006.10 1006.00 1006.03 1006.11 1006.36 1006.62 1006.89
1014.15 1014.06 1014.10 1014.26 1013.65 1012.63 1011.51 1011.25 1010.88 1010.51 1008.80 1007.19 1006.41 1005.88 1005.97 1006.07 1005.98 1006.32 1006.53 1006.62 1006.81 1007.26 1007.75 1007.06 1006.70 1006.42 1006.18 1005.88 1006.12 1006.28 1006.24 1006.40 1006.55 1006.65 1006.78 1006.90 1006.43 1005.42 1005.70 1005.22 1004.93 1004.93 1005.20 1005.40 1005.72
1013.96 1013.92 1014.09 1014.04 1013.65 1011.71 1011.34 1010.98 1010.69 1009.94 1007.79 1006.44 1005.86 1005.79 1005.89 1005.97 1005.88 1006.16 1006.32 1006.60 1006.82 1006.98 1007.20 1006.83 1006.66 1006.31 1005.60 1005.40 1005.58 1005.85 1006.04 1006.22 1006.52 1006.56 1006.50 1006.94 1006.37 1004.68 1004.60 1004.36 1003.99 1004.14 1004.31 1004.58 1004.90
1013.73 1013.76 1014.02 1013.32 1012.13 1011.48 1011.16 1010.55 1009.94 1008.41 1007.32 1006.40 1005.86 1005.79 1005.73 1005.86 1005.90 1005.85 1006.09 1006.40 1006.51 1006.71 1006.60 1006.24 1005.90 1005.54 1005.37 1005.24 1005.40 1005.35 1005.12 1005.25 1005.71 1005.96 1006.24 1007.02 1006.33 1004.45 1004.25 1004.05 1003.92 1003.74 1003.68 1003.79 1004.52
1013.49 1013.66 1013.43 1012.66 1011.99 1011.69 1010.77 1009.95 1008.72 1007.50 1006.63 1006.21 1005.95 1005.94 1005.73 1006.08 1006.22 1006.22 1006.17 1006.23 1006.56 1006.57 1006.40 1006.01 1005.33 1005.11 1004.98 1004.82 1004.70 1005.06 1005.03 1005.24 1005.49 1005.86 1006.28 1006.87 1005.51 1003.99 1003.96 1003.90 1003.73 1003.64 1003.63 1003.89 1004.20
1013.47 1013.56 1012.92 1011.34 1011.78 1012.00 1010.50 1009.13 1007.79 1006.94 1006.29 1005.92 1005.90 1005.75 1006.13 1006.40 1006.47 1006.25 1006.00 1005.71 1005.64 1005.95 1005.90 1005.83 1005.33 1004.89 1004.87 1004.71 1004.87 1005.32 1005.43 1005.76 1005.80 1006.82 1006.32 1005.92 1005.28 1004.01 1003.74 1003.61 1003.62 1003.50 1003.51 1003.39 1003.87
1013.09 1012.60 1011.62 1011.12 1011.44 1011.26 1010.02 1008.77 1007.67 1006.88 1006.15 1005.78 1005.43 1005.57 1005.69 1006.26 1006.44 1006.17 1005.71 1005.37 1005.35 1005.62 1005.69 1006.06 1005.61 1005.08 1004.80 1004.89 1005.23 1005.10 1005.67 1005.76 1005.72 1005.78 1005.64 1005.40 1004.90 1003.91 1003.69 1003.72 1003.82 1003.54 1003.06 1002.94 1003.64
1012.70 1011.58 1011.30 1011.18 1011.25 1010.25 1009.19 1008.40 1007.50 1006.52 1006.24 1005.75 1005.40 1005.42 1005.63 1005.91 1005.97 1005.90 1005.54 1005.28 1005.28 1005.74 1005.90 1006.00 1005.93 1005.26 1005.10 1005.20 1005.55 1005.62 1005.67 1006.24 1006.24 1006.19 1005.50 1005.00 1004.07 1004.25 1004.10 1004.09 1003.94 1003.51 1003.21 1003.17 1003.64
1012.02 1011.14 1011.20 1011.10 1010.63 1010.18 1008.96 1008.15 1007.56 1006.34 1006.07 1005.78 1005.53 1005.30 1005.38 1005.65 1005.86 1005.85 1005.61 1005.41 1005.50 1005.60 1005.84 1006.19 1005.95 1005.39 1005.35 1005.98 1006.28 1006.08 1006.12 1006.21 1005.90 1006.38 1006.59 1005.80 1004.28 1003.97 1004.02 1003.88 1003.90 1003.36 1003.16 1003.35 1003.92
1011.61 1011.19 1010.93 1010.49 1009.88 1009.34 1008.71 1007.84 1007.16 1006.21 1005.77 1005.59 1005.28 1005.32 1005.52 1005.66 1005.92 1005.73 1005.54 1005.41 1005.54 1005.56 1005.75 1006.07 1006.06 1005.54 1005.36 1005.96 1006.14 1005.87 1006.06 1006.40 1006.45 1006.42 1005.87 1005.22 1003.87 1003.76 1003.61 1003.26 1002.98 1003.09 1002.93 1003.42 1003.79
1011.24 1010.89 1010.76 1010.38 1009.80 1008.75 1008.30 1007.72 1006.94 1006.10 1005.78 1005.40 1005.10 1005.09 1005.36 1005.55 1005.74 1005.61 1005.52 1005.44 1005.68 1005.81 1005.96 1005.88 1005.92 1005.50 1005.37 1005.52 1005.82 1005.65 1005.68 1006.04 1005.86 1005.56 1004.80 1004.48 1003.56 1003.38 1002.84 1002.75 1002.49 1002.67 1003.00 1003.22 1003.60
1011.04 1010.40 1009.84 1009.78 1009.29 1008.69 1008.25 1007.74 1006.93 1006.06 1005.65 1005.34 1004.91 1004.77 1004.68 1005.17 1005.40 1005.19 1005.25 1005.43 1005.80 1006.09 1006.23 1005.95 1005.64 1005.93 1005.59 1005.73 1005.90 1005.60 1005.44 1005.52 1005.52 1005.03 1004.79 1003.72 1003.34 1002.91 1002.46 1002.62 1002.56 1002.85 1003.01 1003.30 1003.40
1010.98 1010.34 1010.16 1009.57 1009.05 1008.58 1008.30 1007.44 1006.84 1006.27 1005.99 1005.07 1004.86 1004.94 1004.87 1004.90 1004.80 1004.66 1004.72 1005.02 1005.14 1005.93 1006.02 1006.21 1006.14 1006.26 1005.78 1005.52 1005.70 1005.28 1005.02 1004.92 1004.82 1004.57 1004.47 1003.78 1003.40 1002.37 1002.46 1002.64 1002.60 1002.71 1002.94 1003.17 1003.48
1011.59 1010.81 1009.93 1009.74 1009.00 1008.47 1007.91 1007.44 1007.06 1006.83 1006.12 1005.86 1005.58 1005.29 1005.18 1005.43 1005.23 1004.88 1004.92 1004.89 1005.13 1005.62 1006.15 1006.40 1006.44 1006.66 1005.76 1006.08 1005.83 1005.01 1004.22 1004.12 1004.14 1004.18 1003.92 1003.58 1003.10 1003.10 1002.89 1002.81 1002.68 1002.59 1002.85 1003.00 1003.34
Thickness
5742 5744 5747 5751 5756 5761 5764 5767 5770 5776 5782 5789 5795 5800 5803 5809 5818 5821 5823 5843 5847 5847 5844 5837 5832 5829 5828 5820 5823 5823 5803 5792 5796 5796 5802 5815 5808 5817 5821 5812 5814 5814 5811 5814 5805
5742 5744 5747 5753 5758 5762 5765 5769 5772 5778 5786 5793 5797 5802 5805 5811 5818 5824 5850 5849 5848 5846 5838 5828 5819 5823 5814 5816 5817 5810 5798 5804 5816 5816 5813 5820 5816 5813 5807 5805 5804 5805 5808 5808 5803
5742 5744 5748 5754 5759 5764 5767 5771 5775 5782 5791 5795 5799 5804 5809 5814 5818 5835 5855 5851 5850 5847 5844 5837 5829 5821 5811 5817 5815 5811 5805 5817 5823 5827 5830 5824 5820 5823 5812 5800 5812 5808 5803 5804 5800
5743 5744 5749 5755 5761 5765 5769 5772 5778 5786 5794 5797 5801 5806 5812 5816 5801 5848 5856 5854 5852 5848 5839 5829 5822 5812 5808 5806 5817 5810 5825 5828 5833 5835 5830 5826 5829 5820 5820 5822 5831 5822 5814 5809 5803
5744 5745 5750 5756 5762 5766 5770 5775 5782 5790 5795 5800 5803 5809 5817 5815 5825 5854 5853 5852 5850 5844 5830 5824 5817 5817 5807 5811 5813 5812 5822 5833 5837 5841 5836 5837 5827 5826 5819 5827 5830 5821 5811 5807 5807
5745 5746 5751 5757 5763 5768 5773 5779 5787 5793 5796 5801 5806 5812 5817 5807 5852 5852 5852 5850 5845 5837 5825 5829 5823 5826 5816 5813 5810 5820 5822 5827 5834 5835 5839 5829 5826 5829 5818 5825 5821 5815 5811 5810 5808
5746 5748 5753 5759 5765 5771 5776 5782 5791 5796 5798 5802 5809 5816 5815 5825 5853 5853 5852 5848 5849 5841 5828 5834 5836 5828 5822 5810 5823 5823 5813 5826 5828 5829 5828 5835 5816 5817 5823 5823 5815 5813 5813 5809 5808
5747 5750 5755 5761 5767 5773 5778 5785 5794 5798 5801 5806 5812 5817 5819 5852 5852 5850 5851 5847 5852 5850 5844 5844 5844 5832 5824 5826 5820 5810 5813 5801 5824 5828 5829 5828 5798 5816 5825 5821 5815 5813 5813 5810 5810
5749 5753 5758 5763 5769 5775 5781 5789 5798 5801 5803 5808 5813 5819 5821 5853 5843 5850 5851 5839 5846 5848 5846 5847 5842 5826 5826 5810 5801 5804 5791 5795 5811 5832 5824 5820 5806 5819 5826 5822 5819 5817 5814 5816 5814
5751 5756 5761 5766 5771 5777 5784 5793 5801 5805 5806 5810 5816 5812 5833 5834 5849 5851 5852 5851 5841 5839 5832 5830 5822 5813 5811 5806 5786 5794 5800 5805 5808 5827 5824 5816 5817 5824 5826 5825 5825 5822 5819 5817 5819
5753 5758 5763 5768 5773 5778 5788 5797 5802 5805 5809 5819 5823 5826 5836 5851 5859 5847 5854 5846 5842 5830 5811 5816 5810 5809 5820 5820 5820 5815 5810 5807 5823 5832 5823 5821 5822 5829 5831 5827 5823 5823 5824 5824 5826
5755 5760 5765 5770 5774 5780 5786 5801 5807 5810 5806 5827 5826 5833 5844 5852 5835 5841 5855 5832 5825 5810 5815 5813 5809 5828 5829 5826 5821 5818 5812 5815 5826 5833 5826 5828 5830 5838 5837 5834 5833 5831 5831 5831 5831
5756 5761 5766 5771 5776 5783 5794 5804 5812 5816 5802 5820 5830 5835 5845 5850 5838 5837 5846 5837 5822 5812 5813 5806 5827 5835 5828 5824 5818 5823 5815 5815 5819 5826 5829 5823 5829 5831 5839 5841 5841 5843 5844 5841 5839
5758 5762 5767 5773 5778 5790 5798 5810 5814 5818 5794 5812 5823 5843 5848 5850 5837 5859 5859 5844 5826 5816 5816 5819 5836 5831 5829 5825 5829 5820 5831 5828 5823 5819 5808 5821 5801 5825 5832 5837 5842 5846 5847 5846 5846
5759 5764 5768 5771 5782 5791 5804 5809 5815 5815 5762 5819 5827 5859 5850 5839 5845 5841 5861 5848 5826 5823 5823 5823 5829 5829 5825 5832 5835 5826 5838 5831 5827 5820 5817 5814 5810 5832 5831 5835 5847 5856 5855 5858 5858
5760 5764 5767 5772 5778 5797 5803 5810 5811 5783 5764 5811 5832 5829 5828 5835 5838 5844 5844 5852 5846 5828 5827 5828 5843 5837 5841 5847 5844 5843 5832 5828 5824 5819 5798 5803 5810 5829 5837 5845 5857 5862 5863 5864 5863
5761 5765 5767 5775 5792 5798 5805 5807 5779 5769 5809 5806 5815 5826 5826 5821 5828 5835 5829 5824 5818 5803 5805 5826 5828 5842 5847 5835 5842 5839 5834 5808 5800 5800 5799 5802 5804 5833 5848 5856 5858 5862 5868 5872 5865
5763 5766 5772 5781 5789 5795 5804 5793 5761 5790 5798 5820 5818 5819 5817 5822 5821 5824 5822 5817 5825 5822 5811 5803 5807 5835 5847 5843 5837 5834 5835 5808 5777 5789 5798 5799 5803 5837 5856 5861 5864 5866 5869 5867 5863
5763 5767 5775 5792 5790 5791 5796 5773 5781 5794 5814 5814 5817 5811 5808 5815 5818 5820 5821 5824 5834 5832 5812 5807 5812 5845 5846 5851 5847 5824 5821 5829 5804 5784 5791 5803 5820 5849 5855 5856 5856 5859 5863 5866 5864
5768 5776 5786 5791 5791 5792 5788 5771 5791 5809 5819 5821 5808 5817 5807 5810 5811 5816 5821 5837 5834 5840 5845 5824 5807 5834 5842 5848 5842 5839 5835 5816 5810 5782 5776 5798 5797 5817 5837 5842 5848 5851 5861 5867 5862
5771 5784 5786 5789 5792 5791 5779 5784 5795 5817 5820 5815 5816 5813 5817 5813 5819 5818 5825 5838 5844 5836 5841 5832 5821 5826 5835 5828 5818 5825 5820 5807 5809 5798 5790 5783 5806 5833 5832 5837 5838 5848 5858 5861 5856
5777 5777 5785 5789 5780 5770 5782 5791 5801 5815 5824 5822 5825 5826 5824 5822 5816 5817 5820 5833 5847 5845 5828 5832 5824 5810 5818 5824 5824 5823 5814 5813 5801 5783 5772 5778 5798 5839 5837 5840 5838 5846 5851 5854 5849
5773 5775 5785 5789 5775 5776 5786 5795 5806 5814 5819 5819 5821 5827 5826 5820 5813 5821 5825 5844 5845 5842 5831 5831 5815 5801 5808 5816 5818 5816 5815 5805 5802 5794 5781 5775 5795 5836 5837 5841 5849 5842 5849 5845 5842
5774 5766 5774 5779 5777 5786 5786 5791 5798 5822 5819 5827 5829 5833 5822 5818 5820 5818 5823 5837 5840 5839 5824 5834 5814 5813 5796 5805 5812 5805 5810 5805 5806 5791 5796 5794 5803 5821 5834 5836 5846 5845 5842 5840 5836
5773 5772 5780 5773 5779 5785 5791 5792 5797 5806 5823 5827 5828 5831 5829 5813 5816 5819 5826 5829 5832 5823 5825 5829 5811 5806 5814 5811 5806 5809 5809 5807 5795 5806 5788 5808 5808 5821 5833 5832 5838 5837 5835 5832 5829
5774 5775 5775 5775 5779 5784 5780 5794 5799 5809 5811 5823 5824 5827 5830 5822 5830 5822 5829 5825 5825 5824 5822 5820 5803 5799 5805 5814 5804 5801 5811 5808 5805 5806 5798 5805 5802 5836 5838 5834 5830 5829 5827 5823 5821
5766 5773 5781 5764 5777 5783 5787 5795 5800 5804 5817 5821 5820 5823 5824 5825 5833 5838 5838 5837 5832 5823 5815 5812 5799 5789 5790 5794 5792 5792 5814 5817 5815 5815 5811 5796 5817 5825 5822 5822 5823 5824 5820 5817 5814